Location: Unspecified
(47.4828°N, 0.0000°E)
Time: 14:10:02
(UTC+00:00)

NOAA 15 - Visible Passes

Search period start: 04 April 2026 00:00
Search period end: 14 April 2026 00:00
Orbit: 795 x 808 km, 98.5° (Epoch: 29 March)

Date Brightness Start Highest point End Pass type
(mag) Time Alt. Az. Time Alt. Az. Time Alt. Az.
5 Apr 7.9 20:09:33 10° W 20:10:46 11° W 20:11:58 10° WNW visible
6 Apr 7.4 19:40:30 10° SW 19:44:08 19° W 19:47:47 10° NW visible
7 Apr 6.7 19:13:00 10° SSW 19:17:37 30° W 19:22:16 10° NNW visible
9 Apr 7.7 20:03:28 10° WSW 20:05:27 12° W 20:07:26 10° WNW visible
10 Apr 7.3 19:34:58 10° SW 19:38:50 20° W 19:42:44 10° NW visible
13 Apr 7.6 19:57:37 10° WSW 20:00:08 13° W 20:02:40 10° WNW visible
